Toronto, Ontario

10:19 PM EDT on October 17, 2017 (GMT -0400)
Toronto

Weather History for CYTZ - October, 2012

Change the Weather History Date:

Wednesday, October 3, 2012

  Actual Average Record
Temperature  
Mean Temperature 60 °F -  
Max Temperature 62 °F 55 °F 71 °F (2001)
Min Temperature 57 °F 43 °F 37 °F (2003)
Degree Days  
Heating Degree Days 6    
Growing Degree Days 10 (Base 50)    
Moisture  
Dew Point 60 °F    
Average Humidity 94    
Maximum Humidity 100    
Minimum Humidity 82    
Precipitation  
Precipitation 0.00 in 0.08 in - ()
Sea Level Pressure  
Sea Level Pressure 30.02 in    
Wind  
Wind Speed 10 mph ()    
Max Wind Speed 16 mph    
Max Gust Speed -    
Visibility 3.6 miles    
Events Fog , Rain    
Averages and records for this station are not official NWS values.
T = Trace of Precipitation, MM = Missing Value Source: Averaged Metar Reports

Daily Weather History Graph

Daily Weather History Graph

Search for Another Location

Airport or City:

Trip Planner

Search our weather history database for the weather conditions in past years. The results will help you decide how hot, cold, wet, or windy it might be!

Date:

Astronomy

Oct. 03, 2012 Rise Set
Actual Time 7:18 AM EDT 6:54 PM EDT
Civil Twilight 6:49 AM EDT 7:22 PM EDT
Nautical Twilight 6:16 AM EDT 7:55 PM EDT
Astronomical Twilight 5:42 AM EDT 8:29 PM EDT
Moon 8:37 PM EDT (10/3) 10:47 AM EDT (10/3)
Length of Visible Light 12h 33m
Length of Day
11h 36m
Waning Gibbous, 89% of the Moon is Illuminated
Oct 3
Waning Gibbous
Oct 8
Last Quarter
Oct 15
New
Oct 21
First Quarter
Oct 29
Full

Hourly Weather History & Observations

Time (EDT) Temp. Dew Point Humidity Pressure Visibility Wind Dir Wind Speed Gust Speed Precip Events Conditions
12:00 AM 59.0 °F 57.2 °F 94% 29.95 in 9.0 mi ENE 11.5 mph - N/A   Overcast
12:54 AM 60.8 °F 57.2 °F 88% 29.95 in 8.0 mi ENE 15.0 mph - N/A   Overcast
12:58 AM 60.8 °F 57.2 °F 88% 29.95 in 8.0 mi ENE 12.7 mph - N/A   Overcast
1:00 AM 60.8 °F 57.2 °F 88% 29.95 in 8.0 mi ENE 12.7 mph - N/A   Overcast
2:00 AM 61 °F 58 °F 88% 29.95 in 9 mi ENE 11.5 mph - -   Overcast
2:00 AM 60.8 °F 59.0 °F 94% 29.95 in 9.0 mi ENE 12.7 mph - N/A   Overcast
2:14 AM 60.8 °F 57.2 °F 88% 29.95 in 9.0 mi ENE 12.7 mph - N/A   Overcast
2:18 AM 60.8 °F 57.2 °F 88% 29.95 in 9.0 mi ENE 12.7 mph - N/A   Overcast
3:00 AM 60.8 °F 57.2 °F 88% 29.95 in 7.0 mi ENE 15.0 mph - N/A   Overcast
4:00 AM 60.8 °F 59.0 °F 94% 29.95 in 6.0 mi NE 12.7 mph - N/A   Overcast
5:00 AM 62.6 °F 59.0 °F 88% 29.97 in 9.0 mi NE 11.5 mph - N/A   Overcast
6:00 AM 62.6 °F 57.2 °F 82% 29.98 in 9.0 mi ENE 12.7 mph - N/A   Overcast
7:00 AM 62.6 °F 59.0 °F 88% 29.99 in 9.0 mi NE 13.8 mph - N/A   Overcast
8:00 AM 62 °F 59 °F 87% 29.99 in 7 mi ENE 16.1 mph - -   Overcast
8:00 AM 62.6 °F 59.0 °F 88% 29.99 in 7.0 mi ENE 16.1 mph - N/A   Overcast
9:00 AM 62.6 °F 59.0 °F 88% 30.00 in 7.0 mi ENE 16.1 mph - N/A   Overcast
10:00 AM 60.8 °F 57.2 °F 88% 30.03 in 7.0 mi ENE 11.5 mph - N/A   Overcast
10:31 AM 60.8 °F 59.0 °F 94% 30.03 in 5.0 mi ENE 10.4 mph - N/A   Overcast
10:42 AM 60.8 °F 59.0 °F 94% 30.04 in 5.0 mi ENE 10.4 mph - N/A   Overcast
11:00 AM 60.8 °F 59.0 °F 94% 30.04 in 3.0 mi ENE 10.4 mph - N/A   Overcast
11:16 AM 60.8 °F 59.0 °F 94% 30.03 in 2.2 mi ENE 10.4 mph - N/A   Overcast
11:17 AM 60.8 °F 59.0 °F 94% 30.03 in 1.8 mi ENE 10.4 mph - N/A   Overcast
11:23 AM 60.8 °F 59.0 °F 94% 30.03 in 2.2 mi ENE 10.4 mph - N/A   Overcast
11:51 AM 60.8 °F 60.8 °F 100% 30.03 in 3.0 mi ENE 13.8 mph - N/A   Overcast
11:57 AM 60.8 °F 60.8 °F 100% 30.03 in 2.2 mi ENE 13.8 mph - N/A   Overcast
12:00 PM 60.8 °F 60.8 °F 100% 30.03 in 2.2 mi ENE 13.8 mph - N/A   Overcast
12:27 PM 60.8 °F 59.0 °F 94% 30.03 in 2.5 mi ENE 10.4 mph - N/A Rain Light Rain
12:32 PM 60.8 °F 59.0 °F 94% 30.03 in 2.0 mi ENE 10.4 mph - N/A Rain Light Rain
12:55 PM 60.8 °F 60.8 °F 100% 30.03 in 1.2 mi ENE 9.2 mph - N/A   Overcast
1:00 PM 60.8 °F 60.8 °F 100% 30.03 in 1.0 mi ENE 9.2 mph - N/A   Overcast
2:00 PM 61 °F 60 °F 95% 30.02 in 0 mi East 6.9 mph - - Fog Fog
2:00 PM 60.8 °F 59.0 °F 94% 30.02 in 0.4 mi East 5.8 mph - N/A Fog Fog
2:29 PM 60.8 °F 60.8 °F 100% 30.02 in 0.1 mi East 6.9 mph - N/A Fog , Rain Light Rain
3:00 PM 60.8 °F 60.8 °F 100% 30.03 in 0.1 mi ENE 8.1 mph - N/A Fog , Rain Light Rain
3:20 PM 60.8 °F 60.8 °F 100% 30.03 in 0.2 mi East 6.9 mph - N/A Fog Fog
4:00 PM 62.6 °F 60.8 °F 94% 30.04 in 0.2 mi ENE 5.8 mph - N/A Fog Fog
4:08 PM 62.6 °F 60.8 °F 94% 30.04 in 0.2 mi ENE 5.8 mph - N/A Fog Fog
4:43 PM 62.6 °F 60.8 °F 94% 30.03 in 0.2 mi ENE 8.1 mph - N/A Fog Fog
5:00 PM 62.6 °F 60.8 °F 94% 30.03 in 0.8 mi ENE 8.1 mph - N/A   Mist
5:04 PM 62.6 °F 60.8 °F 94% 30.03 in 1.2 mi East 8.1 mph - N/A   Unknown
5:10 PM 62.6 °F 62.6 °F 100% 30.03 in 1.0 mi East 8.1 mph - N/A   Overcast
6:00 PM 60.8 °F 60.8 °F 100% 30.05 in 0.1 mi ENE 6.9 mph - N/A Fog Fog
7:00 PM 60.8 °F 60.8 °F 100% 30.06 in 0.1 mi ENE 8.1 mph - N/A Fog Fog
8:00 PM 62 °F 61 °F 95% 30.06 in 0 mi ENE 9.2 mph - - Fog Fog
8:00 PM 62.6 °F 60.8 °F 94% 30.06 in 0.4 mi East 9.2 mph - N/A Fog Fog
9:00 PM 62.6 °F 60.8 °F 94% 30.08 in 0.4 mi ENE 10.4 mph - N/A Fog Fog
9:34 PM 60.8 °F 60.8 °F 100% 30.09 in 1.2 mi East 6.9 mph - N/A   Mist
9:47 PM 60.8 °F 60.8 °F 100% 30.08 in 1.0 mi East 9.2 mph - N/A   Overcast
10:00 PM 60.8 °F 60.8 °F 100% 30.09 in 0.8 mi ENE 6.9 mph - N/A   Mist
11:00 PM 60.8 °F 60.8 °F 100% 30.10 in 0.2 mi Calm Calm - N/A Fog Fog